Aérodrome :
LOGIN :

S'inscrire | Disclaimer

   EN    FR    IT 

 










Légende :    VFR   VFR Marginal   IFR   IFR Intensif   IFR Très Intensif
Visi : 
Plafond : 
>= 8 km
>= 3000ft
5 à 8 km
1000 à 3000 ft
1500m à 5 km
500 à 1000 ft
800 à 1500m
200 à 500 ft
< 800m
< 200 ft
Symboles :   Orages  Brouillard  Fortes neiges  Fortes précipitations  Vent > 20 kt
SIGMETs :   Divers  Orages  Givrage  Turbulence  Onde Orograph.  Cendres Volcan.







- Altitude de l'aérodrome : 19 ft
- Code IATA : LCY
- Voir les cartes d'approche


EGLC - London City

DERNIER METAR :
  • 210420Z AUTO 18006KT 150V220 9999 NCD 16/12 Q1015

METARs EXPIRÉS :
  • 210350Z AUTO 21007KT 170V240 9999 BKN041 16/12 Q1015
  • 210320Z AUTO 21007KT 150V240 9999 OVC039 16/12 Q1015
  • 210250Z AUTO 21007KT 170V240 9999 BKN037 OVC044 16/12 Q1015
  • 210220Z AUTO 20007KT 9999 OVC041 16/12 Q1016

TAF TAF EGLC
Valide du 21 à 03h jusqu'au 21 à 12h UTC


210200Z 2103/2112 20008KT 9999 SCT035
ATIS : +44 20 7646 0224
Pas de NOTAMs connus pour ce terrain.



MET'MAP, la Météo Aéronautique d'un coup d'oeil ! - Copyright ORBIFLY Décembre 2007 - Disclaimer

ORBIFLY MET'MAP TEAM :

Programmation & Développement : Alexandra Zaïnal
Conception & Développement : Baudouin d'Aumeries
Co-Programmation & Développement : Marc-Olivier Méhu
Soutien technique & logistique : Manuel Goepfert

Contact : metmap@orbifly.com




SOURCES & CREDITS :

   NOAA